Weather reports worldwide

Advertisment
Drumnadrochit, United Kingdom (99132): temperature & dewpoint: 14.10.2017 08:00:00 - 20.10.2017 08:00:00 (BST)Drumnadrochit, United Kingdom (99132): precipitation: 14.10.2017 08:00:00 - 20.10.2017 08:00:00 (BST)
Date & Time tt [°C] td [°C] rr [mm]
20.10.2017 08:00:00 - - -
20.10.2017 07:00:00 9,8 9,6 0,0
20.10.2017 06:00:00 10,3 10,2 0,2
20.10.2017 05:00:00 10,5 10,3 0,0
20.10.2017 04:00:00 10,5 10,3 0,2
20.10.2017 03:00:00 10,8 10,4 0,6
20.10.2017 02:00:00 10,8 10,6 0,4
20.10.2017 01:00:00 10,7 10,5 1,4
20.10.2017 00:00:00 10,5 10,1 1,4
19.10.2017 23:00:00 10,9 10,2 0,0
19.10.2017 22:00:00 10,8 10,2 0,0
19.10.2017 21:00:00 10,8 10,2 0,0
19.10.2017 20:00:00 10,5 9,9 0,0
19.10.2017 19:00:00 11,2 10,0 0,0
19.10.2017 18:00:00 12,8 10,5 0,0
19.10.2017 17:00:00 14,3 10,0 0,0
19.10.2017 16:00:00 14,9 10,1 0,0
19.10.2017 15:00:00 15,0 10,0 0,0
19.10.2017 14:00:00 14,8 9,4 0,0
19.10.2017 13:00:00 14,1 9,8 0,0
19.10.2017 12:00:00 13,6 9,0 0,0
19.10.2017 11:00:00 13,2 9,3 0,0
19.10.2017 10:00:00 13,0 8,9 0,0
19.10.2017 09:00:00 11,7 8,8 0,0
19.10.2017 08:00:00 11,9 8,4 0,0
19.10.2017 07:00:00 11,6 8,6 0,0
19.10.2017 06:00:00 11,4 8,9 0,0
19.10.2017 05:00:00 10,4 8,3 0,0
19.10.2017 04:00:00 9,3 8,4 0,0
19.10.2017 03:00:00 8,8 7,6 0,0
19.10.2017 02:00:00 8,2 6,8 0,0
19.10.2017 01:00:00 8,8 6,6 0,0
19.10.2017 00:00:00 6,8 6,2 0,0
18.10.2017 23:00:00 6,9 6,1 0,0
18.10.2017 22:00:00 7,6 6,1 0,0
18.10.2017 21:00:00 8,2 6,3 0,0
18.10.2017 20:00:00 6,8 6,0 0,0
18.10.2017 19:00:00 8,1 6,8 0,0
18.10.2017 18:00:00 9,6 7,5 0,0
18.10.2017 17:00:00 10,5 8,0 0,0
18.10.2017 16:00:00 11,2 6,3 0,0
18.10.2017 15:00:00 11,5 6,2 0,0
18.10.2017 14:00:00 11,6 6,1 0,0
18.10.2017 13:00:00 10,6 6,3 0,0
18.10.2017 12:00:00 9,7 5,9 0,0
18.10.2017 11:00:00 8,9 6,2 0,0
18.10.2017 10:00:00 7,7 7,0 0,0
18.10.2017 09:00:00 6,0 5,7 0,0
18.10.2017 08:00:00 6,5 6,0 0,0
18.10.2017 07:00:00 6,5 6,2 0,0
18.10.2017 06:00:00 6,1 6,1 0,0
18.10.2017 05:00:00 5,9 5,8 0,0
18.10.2017 04:00:00 6,9 6,5 0,0
18.10.2017 03:00:00 7,2 6,9 0,0
18.10.2017 02:00:00 6,9 6,5 0,0
18.10.2017 01:00:00 7,2 6,9 0,0
18.10.2017 00:00:00 7,0 6,2 0,0
17.10.2017 23:00:00 7,4 6,4 0,0
17.10.2017 22:00:00 8,4 7,1 0,0
17.10.2017 21:00:00 8,5 8,0 0,0
17.10.2017 20:00:00 8,4 7,8 0,0
17.10.2017 19:00:00 9,0 8,1 0,2
17.10.2017 18:00:00 9,7 7,8 0,0
17.10.2017 17:00:00 10,3 7,9 0,0
17.10.2017 16:00:00 10,1 8,4 0,0
17.10.2017 15:00:00 10,5 8,4 0,4
17.10.2017 14:00:00 11,7 8,9 0,2
17.10.2017 13:00:00 11,6 9,9 0,2
17.10.2017 12:00:00 13,4 10,0 0,0
17.10.2017 11:00:00 13,7 10,7 0,0
17.10.2017 10:00:00 13,3 10,4 0,0
17.10.2017 09:00:00 12,9 10,1 0,0
17.10.2017 08:00:00 12,3 9,9 0,0
17.10.2017 07:00:00 12,4 10,1 0,0
17.10.2017 06:00:00 12,7 10,2 0,0
17.10.2017 05:00:00 12,2 11,3 2,8
17.10.2017 04:00:00 10,7 10,6 1,4
17.10.2017 03:00:00 10,4 10,3 0,8
17.10.2017 02:00:00 10,5 10,0 0,2
17.10.2017 01:00:00 12,1 10,1 0,6
17.10.2017 00:00:00 12,6 10,5 1,0
16.10.2017 23:00:00 11,7 9,8 0,0
16.10.2017 22:00:00 13,0 9,3 0,0
16.10.2017 21:00:00 13,2 9,4 0,2
16.10.2017 20:00:00 12,4 10,1 0,2
16.10.2017 19:00:00 12,1 10,3 0,0
16.10.2017 18:00:00 11,8 9,4 0,0
16.10.2017 17:00:00 11,6 9,1 0,0
16.10.2017 16:00:00 10,6 8,9 0,0
16.10.2017 15:00:00 9,4 8,3 0,0
16.10.2017 14:00:00 9,0 7,8 0,2
16.10.2017 13:00:00 9,1 7,4 0,2
16.10.2017 12:00:00 8,5 7,9 1,2
16.10.2017 11:00:00 8,2 7,9 1,4
16.10.2017 10:00:00 8,0 7,8 2,0
16.10.2017 09:00:00 7,8 7,7 0,2
16.10.2017 08:00:00 7,4 7,4 0,4
16.10.2017 07:00:00 7,4 7,2 0,6
16.10.2017 06:00:00 7,3 7,1 0,2
16.10.2017 05:00:00 7,2 6,9 0,0
16.10.2017 04:00:00 7,3 6,9 0,0
16.10.2017 03:00:00 7,2 6,8 0,0
16.10.2017 02:00:00 7,5 7,0 0,0
16.10.2017 01:00:00 7,8 7,0 0,0
16.10.2017 00:00:00 8,0 7,2 0,0
15.10.2017 23:00:00 8,1 7,1 0,0
15.10.2017 22:00:00 8,4 7,1 0,0
15.10.2017 21:00:00 8,6 7,4 0,0
15.10.2017 20:00:00 9,0 7,6 0,0
15.10.2017 19:00:00 9,1 7,5 0,0
15.10.2017 18:00:00 11,0 7,5 0,0
15.10.2017 17:00:00 11,7 6,7 0,0
15.10.2017 16:00:00 13,1 7,6 0,0
15.10.2017 15:00:00 16,4 12,4 0,0
15.10.2017 14:00:00 17,8 12,0 0,0
15.10.2017 13:00:00 17,2 12,5 0,0
15.10.2017 12:00:00 15,9 12,7 0,0
15.10.2017 11:00:00 15,1 13,2 0,2
15.10.2017 10:00:00 14,4 12,5 0,0
15.10.2017 09:00:00 13,8 12,4 0,4
15.10.2017 08:00:00 14,1 12,4 0,2
15.10.2017 07:00:00 14,1 12,5 0,6
15.10.2017 06:00:00 13,9 12,2 0,2
15.10.2017 05:00:00 13,9 11,9 1,2
15.10.2017 04:00:00 14,2 11,3 0,0
15.10.2017 03:00:00 10,1 10,1 0,2
15.10.2017 02:00:00 9,0 8,9 0,0
15.10.2017 01:00:00 9,0 8,6 0,6
15.10.2017 00:00:00 9,6 9,1 0,0
14.10.2017 23:00:00 10,0 8,9 0,4
14.10.2017 22:00:00 9,9 8,6 0,0
14.10.2017 21:00:00 10,6 7,8 0,0
14.10.2017 20:00:00 10,5 7,5 0,0
14.10.2017 19:00:00 10,4 7,8 0,0
14.10.2017 18:00:00 11,3 7,7 0,0
14.10.2017 17:00:00 11,8 8,1 0,0
14.10.2017 16:00:00 11,8 8,2 0,0
14.10.2017 15:00:00 12,9 7,5 0,0
14.10.2017 14:00:00 13,1 6,7 0,0
14.10.2017 13:00:00 13,1 7,1 0,0
14.10.2017 12:00:00 12,2 7,4 0,0
14.10.2017 11:00:00 12,6 7,0 0,0
14.10.2017 10:00:00 12,0 6,6 0,0
14.10.2017 09:00:00 10,5 6,9 0,0
14.10.2017 08:00:00 10,7 6,8 0,0

tt = temperature
td = dewpoint
rr = precipitation

Next stations